Weather reports worldwide

Advertisment
Rimini, Italy (16149): temperature & dewpoint: 28.05.2020 20:00:00 - 03.06.2020 20:00:00 (CEST)Rimini, Italy (16149): wind speed: 28.05.2020 20:00:00 - 03.06.2020 20:00:00 (CEST)Rimini, Italy (16149): wind direction: 28.05.2020 20:00:00 - 03.06.2020 20:00:00 (CEST)Rimini, Italy (16149): reduced air pressure: 28.05.2020 20:00:00 - 03.06.2020 20:00:00 (CEST)Rimini, Italy (16149): visibility: 28.05.2020 20:00:00 - 03.06.2020 20:00:00 (CEST)Rimini, Italy (16149): precipitation: 28.05.2020 20:00:00 - 03.06.2020 20:00:00 (CEST)
Date & Time tt [°C] td [°C] ff [km/h] ff [kn] dd ppp [hPa] vv [km] rr [mm]
03.06.2020 20:00:00 24,5 15,7 2 1 - 1005,4 10 -
03.06.2020 19:00:00 23,0 14,0 13 7 E - 10 -
03.06.2020 18:00:00 23,0 15,0 18 10 E - 10 -
03.06.2020 17:00:00 24,6 11,3 18 10 E 1006,4 10 0,0
03.06.2020 16:00:00 24,0 13,0 9 5 ENE - 10 -
03.06.2020 15:00:00 24,0 12,0 18 10 E - 10 -
03.06.2020 14:00:00 22,7 15,5 15 8 ENE 1008,3 10 -
03.06.2020 13:00:00 23,0 15,0 16 9 NE - 10 -
03.06.2020 12:00:00 23,0 13,0 15 8 NNE - 10 -
03.06.2020 11:00:00 23,2 13,2 13 7 NE 1009,4 10 0,0
03.06.2020 10:00:00 23,0 12,0 5 3 NE - 10 -
03.06.2020 09:00:00 23,0 12,0 2 1 - - 10 -
03.06.2020 08:00:00 20,0 12,4 4 2 - 1009,9 10 -
03.06.2020 07:00:00 17,0 11,0 9 5 SSW - 10 -
03.06.2020 06:00:00 15,0 12,0 5 3 SSW - 10 -
03.06.2020 05:00:00 15,6 11,4 5 3 S 1009,6 10 0,0
03.06.2020 04:00:00 17,0 12,0 4 2 - - 10 -
03.06.2020 03:00:00 18,0 13,0 5 3 SW - 10 -
03.06.2020 02:00:00 17,9 12,5 4 2 - 1010,8 10 -
03.06.2020 01:00:00 20,0 12,0 4 2 - - 10 -
03.06.2020 00:00:00 20,0 12,0 8 4 S - 10 -
02.06.2020 23:00:00 20,4 11,1 8 4 SW 1011,5 10 0,0
02.06.2020 22:00:00 22,0 10,0 8 4 SE - 10 -
02.06.2020 21:00:00 22,0 12,0 9 5 E - 10 -
02.06.2020 20:00:00 23,1 11,2 13 7 E 1010,4 10 -
02.06.2020 19:00:00 24,0 11,0 15 8 E - 10 -
02.06.2020 18:00:00 25,0 11,0 21 11 E - 10 -
02.06.2020 17:00:00 24,2 10,9 22 12 E 1011,4 10 0,0
02.06.2020 16:00:00 24,0 13,0 16 9 E - 10 -
02.06.2020 15:00:00 24,0 13,0 16 9 E - 10 -
02.06.2020 14:00:00 24,2 12,8 15 8 E 1013,6 10 -
02.06.2020 13:00:00 23,0 12,0 16 9 ENE - 10 -
02.06.2020 12:00:00 23,0 12,0 15 8 ENE - 10 -
02.06.2020 11:00:00 23,9 11,5 11 6 ENE 1014,7 10 0,0
02.06.2020 10:00:00 23,0 10,0 5 3 SE - 10 -
02.06.2020 09:00:00 21,0 11,0 9 5 SE - 10 -
02.06.2020 08:00:00 19,4 11,3 4 2 - 1015,3 10 -
02.06.2020 07:00:00 16,0 11,0 4 2 S - 10 -
02.06.2020 06:00:00 14,0 9,0 5 3 SW - 10 -
02.06.2020 05:00:00 13,7 9,0 5 3 SSW 1016,1 10 0,0
02.06.2020 04:00:00 13,0 9,0 4 2 - - 10 -
02.06.2020 03:00:00 13,0 8,0 4 2 - - 10 -
02.06.2020 02:00:00 13,0 8,5 5 3 S 1017,1 10 -
02.06.2020 01:00:00 14,0 9,0 9 5 S - 10 -
02.06.2020 00:00:00 13,0 10,0 8 4 SSW - 10 -
01.06.2020 23:00:00 14,8 10,0 2 1 - 1017,1 10 0,0
01.06.2020 22:00:00 17,0 11,0 2 1 S - 10 -
01.06.2020 21:00:00 19,0 10,0 5 3 E - 10 -
01.06.2020 20:00:00 20,6 9,9 8 4 E 1016,7 10 -
01.06.2020 19:00:00 22,0 10,0 9 5 E - 10 -
01.06.2020 18:00:00 22,0 9,0 8 4 NE - 10 -
01.06.2020 17:00:00 21,1 8,6 13 7 ENE 1017,7 10 0,0
01.06.2020 16:00:00 23,0 8,0 13 7 E - 10 -
01.06.2020 15:00:00 23,0 8,0 13 7 ENE - 10 -
01.06.2020 14:00:00 22,0 8,8 9 5 ENE 1018,2 10 -
01.06.2020 13:00:00 21,0 9,0 8 4 E - 10 -
01.06.2020 12:00:00 20,0 12,0 8 4 - - 10 -
01.06.2020 11:00:00 20,1 11,0 8 4 N 1018,3 10 0,0
01.06.2020 10:00:00 19,0 9,0 5 3 NNW - 10 -
01.06.2020 09:00:00 17,0 10,0 4 2 - - 10 -
01.06.2020 08:00:00 15,1 10,2 2 1 - 1018,0 10 -
01.06.2020 07:00:00 13,0 9,0 5 3 SSW - 10 -
01.06.2020 06:00:00 12,0 9,0 4 2 SSW - 10 -
01.06.2020 05:00:00 11,6 7,7 5 3 S 1017,2 10 0,0
01.06.2020 04:00:00 11,0 9,0 2 1 - - 10 -
01.06.2020 03:00:00 11,0 9,0 5 3 S - 10 -
01.06.2020 02:00:00 11,6 9,5 4 2 SSW 1017,1 10 -
01.06.2020 01:00:00 13,0 10,0 4 2 SSW - 10 -
01.06.2020 00:00:00 14,0 10,0 4 2 SSW - 10 -
31.05.2020 23:00:00 14,2 10,6 8 4 S 1016,5 10 0,0
31.05.2020 22:00:00 17,0 9,0 5 3 E - 10 -
31.05.2020 21:00:00 18,0 9,0 8 4 ENE - 10 -
31.05.2020 20:00:00 18,5 9,2 5 3 E 1015,1 10 -
31.05.2020 19:00:00 19,0 9,0 9 5 E - 10 -
31.05.2020 18:00:00 19,0 11,0 9 5 NE - 10 -
31.05.2020 17:00:00 19,1 10,5 9 5 NE 1015,4 10 0,0
31.05.2020 16:00:00 19,0 11,0 13 7 NNE - 10 -
31.05.2020 15:00:00 20,0 12,0 13 7 NNE - 10 -
31.05.2020 14:00:00 19,2 12,3 9 5 NNE 1016,0 30 -
31.05.2020 13:00:00 19,0 12,0 9 5 NNE - 10 -
31.05.2020 12:00:00 19,0 12,0 5 3 - - 10 -
31.05.2020 11:00:00 18,9 11,7 8 4 NNE 1016,8 10 0,0
31.05.2020 10:00:00 18,0 12,0 8 4 N - 10 -
31.05.2020 09:00:00 16,0 11,0 11 6 WNW - 10 -
31.05.2020 08:00:00 14,6 10,5 5 3 WNW 1016,6 10 -
31.05.2020 07:00:00 13,0 10,0 5 3 WNW - 10 -
31.05.2020 06:00:00 12,0 10,0 4 2 - - 10 -
31.05.2020 05:00:00 12,1 9,7 5 3 - 1016,0 10 0,0
31.05.2020 04:00:00 12,0 10,0 5 3 SW - 10 -
31.05.2020 03:00:00 11,0 9,0 8 4 S - 10 -
31.05.2020 02:00:00 11,8 9,6 5 3 SW 1016,8 10 -
31.05.2020 01:00:00 12,0 10,0 5 3 S - 10 -
31.05.2020 00:00:00 13,0 11,0 5 3 WSW - 10 -
30.05.2020 23:00:00 13,4 11,3 4 2 - 1016,7 10 0,0
30.05.2020 22:00:00 16,0 10,0 4 2 - - 10 -
30.05.2020 21:00:00 17,0 11,0 4 2 - - 10 -
30.05.2020 20:00:00 18,3 11,0 8 4 NE 1015,5 10 -
30.05.2020 19:00:00 19,0 11,0 9 5 NE - 10 -
30.05.2020 18:00:00 20,0 11,0 13 7 NE - 10 -
30.05.2020 17:00:00 20,1 11,6 13 7 NE 1015,7 10 0,0
30.05.2020 16:00:00 20,0 12,0 11 6 NE - 10 -
30.05.2020 15:00:00 20,0 13,0 13 7 NNE - 10 -
30.05.2020 14:00:00 19,8 13,1 13 7 NE 1016,5 10 -
30.05.2020 13:00:00 20,0 13,0 13 7 NE - 10 -
30.05.2020 12:00:00 19,0 12,0 9 5 N - 10 -
30.05.2020 11:00:00 18,9 11,5 8 4 - 1017,2 10 0,0
30.05.2020 10:00:00 18,0 12,0 15 8 WNW - 10 -
30.05.2020 09:00:00 16,0 9,0 21 11 W - 10 -
30.05.2020 08:00:00 15,7 9,2 18 10 W 1017,5 10 -
30.05.2020 07:00:00 14,0 9,0 9 5 WNW - 10 -
30.05.2020 06:00:00 12,0 10,0 5 3 W - 10 -
30.05.2020 05:00:00 12,3 10,5 8 4 SSW 1017,9 10 0,0
30.05.2020 04:00:00 12,0 11,0 5 3 WSW - 10 -
30.05.2020 03:00:00 13,0 11,0 8 4 SW - 10 -
30.05.2020 02:00:00 12,7 10,7 11 6 S 1019,2 10 -
30.05.2020 01:00:00 13,0 11,0 8 4 S - 10 -
30.05.2020 00:00:00 14,0 11,0 9 5 S - 10 -
29.05.2020 23:00:00 13,6 11,3 4 2 S 1019,7 10 0,0
29.05.2020 22:00:00 14,0 10,0 4 2 WSW - 10 -
29.05.2020 21:00:00 15,0 10,0 5 3 SSW - 10 -
29.05.2020 20:00:00 15,4 10,4 8 4 SW 1019,1 10 -
29.05.2020 19:00:00 15,0 11,0 8 4 SW - 10 -
29.05.2020 18:00:00 15,0 10,0 11 6 WSW - 10 -
29.05.2020 17:00:00 15,3 10,0 8 4 W 1020,1 10 0,0
29.05.2020 16:00:00 15,0 11,0 15 8 W - 10 -
29.05.2020 15:00:00 15,0 11,0 13 7 WNW - 10 -
29.05.2020 14:00:00 14,2 10,8 15 8 W 1021,9 10 -
29.05.2020 13:00:00 14,0 11,0 8 4 SW - 10 -
29.05.2020 12:00:00 13,0 12,0 13 7 WSW - 10 -
29.05.2020 11:00:00 13,2 12,5 9 5 WSW 1022,7 10 0,0
29.05.2020 10:00:00 13,0 12,0 8 4 WSW - 8 -
29.05.2020 09:00:00 13,0 12,0 2 1 - - 8 -
29.05.2020 08:00:00 12,8 12,2 9 5 SW 1022,2 8 -
29.05.2020 07:00:00 13,0 12,0 11 6 SW - 10 -
29.05.2020 06:00:00 14,0 11,0 15 8 N - 10 -
29.05.2020 05:00:00 14,3 10,7 22 12 N 1021,8 10 0,0
29.05.2020 04:00:00 17,0 12,0 22 12 NNE - 10 -
29.05.2020 03:00:00 17,0 13,0 29 16 NE - 10 -
29.05.2020 02:00:00 16,8 13,3 31 17 NE 1021,1 10 -
29.05.2020 01:00:00 15,0 7,0 2 1 - - 10 -
29.05.2020 00:00:00 14,0 7,0 4 2 S - 10 -
28.05.2020 23:00:00 14,9 6,9 4 2 SE 1020,3 10 0,0
28.05.2020 22:00:00 17,0 7,0 5 3 SE - 10 -
28.05.2020 21:00:00 19,0 6,0 8 4 E - 10 -
28.05.2020 20:00:00 20,8 5,7 11 6 ESE 1019,9 10 -

tt = temperature
td = dewpoint
ff = wind speed
dd = wind direction
ppp = reduced air pressure
vv = visibility
rr = precipitation

Next stations